Tracking 29782 objects as of 13-Oct-2024
HD Live streaming from Space Station
objects crossing your sky now

SL-19 DEB

Track SL-19 DEB now!
10-day predictions


NORAD ID: 36038
Int'l Code: 2009-059C
Perigee: 698.7 km
Apogee: 711.8 km
Inclination: 98.2 °
Period: 98.7 minutes
Semi major axis: 7076 km
RCS: 0.8568 m2 (medium)
Launch date: November 2, 2009
Source: Commonwealth of Independent States (former USSR) (CIS)
Launch site: PLESETSK MISSILE AND SPACE COMPLEX (PKMTR)

Note: This is SATELLITE DEBRIS
Your satellite tracking list
Your tracking list is empty




NASA's NSSDC Master Catalog

Two Line Element Set (TLE):
1 36038U 09059C   24286.88988258  .00003848  00000-0  83833-3 0  9992
2 36038  98.1711 108.3488 0009284 320.6104 167.5725 14.58469354793742
Source of the keplerian elements: AFSPC